Location: Oshawa
(43.9000°N, 78.8670°W)
Time: 09:27:10
(UTC-04:00)

Daily predictions for brighter satellites

Satellite Brightness Start Highest point End
(mag) Time Altitude Azimuth Time Altitude Azimuth Time Altitude Azimuth
Cosmos 2056 Rocket 4.4 19:18:31 10° NNW 19:23:50 57° WSW 19:29:06 10° S
Cosmos-2242 3.8 19:20:31 10° SSE 19:24:19 30° E 19:28:10 10° NNE
Cosmos 2237 Rocket 3.8 19:21:49 10° SW 19:27:06 38° WNW 19:32:24 10° NNE
CZ-2C R/B 4.0 19:24:14 10° SSW 19:28:50 41° W 19:33:21 10° NNW
SJ-6B 3.1 19:25:08 10° SSE 19:29:01 50° ENE 19:33:00 10° N
USA 215 4.2 19:25:07 10° ENE 19:30:25 26° SE 19:35:42 10° S
ATLAS CENTAUR R/B 3.6 19:26:39 10° SSW 19:31:31 69° SE 19:47:04 10° NE
HJ-1C 4.5 19:29:06 10° SE 19:31:56 26° ENE 19:34:47 10° NNE
Cosmos 1346 4.1 19:30:25 10° NNE 19:33:00 26° ENE 19:35:33 10° SE
FREGAT/IRIS 3.2 19:31:00 10° SE 19:33:54 38° ENE 19:36:48 10° N
Cosmos 1544 4.1 19:31:34 10° SSE 19:34:45 27° E 19:37:56 10° NNE
Cosmos 1484 Rocket 3.1 19:32:01 10° S 19:35:52 71° W 19:39:48 10° NNW
TELKOM 3 3.4 19:33:11 10° WNW 19:36:22 60° NNE 19:38:25 12° ESE
Cosmos 724 4.4 19:32:23 10° SSW 19:38:12 61° ESE 19:44:12 10° NE
SAR-Lupe-4 3.5 19:34:45 10° SSE 19:38:19 76° ENE 19:41:54 10° N
METEOR-M 4.4 19:33:44 10° SE 19:38:52 49° ENE 19:44:01 10° N
Cosmos 1758 3.4 19:40:45 10° S 19:44:45 56° E 19:48:48 10° NNE
Cosmos 1464 Rocket 4.0 19:39:27 10° S 19:45:41 83° E 19:51:53 10° N
Cosmos 2034 Rocket 4.0 19:39:44 10° S 19:45:54 63° E 19:52:10 10° NNE
Cosmos 1378 4.3 19:44:50 10° NNW 19:48:26 47° W 19:52:02 10° SSW
Cosmos 1408 Rocket 3.5 19:44:45 10° N 19:49:07 89° W 19:53:26 10° S
SL-16 R/B 3.0 19:43:49 10° SW 19:49:23 55° WNW 19:55:00 10° NNE
SKYMED 2 4.3 19:45:25 10° N 19:49:41 59° WNW 19:53:57 10° SSW
Cosmos 1500 Rocket 4.3 19:46:15 10° N 19:50:15 32° ENE 19:54:15 10° SE
CZ-4B DEB 4.3 19:49:16 15° ESE 19:50:46 20° ENE 19:53:12 10° NNE
Cosmos 1842 Rocket 4.3 19:49:09 10° SSE 19:52:53 29° E 19:56:39 10° NNE
Meteor 1-21 Rocket 4.1 19:49:08 10° N 19:54:42 70° ENE 20:00:12 10° SSE
FENGYUN 3A 4.2 19:52:31 10° SE 19:57:25 38° ENE 20:02:22 10° N
Spot 1 4.1 19:56:11 10° SSE 20:00:49 76° ENE 20:05:12 10° N
Helios 1A 3.1 19:57:08 10° SSE 20:01:15 56° ENE 20:05:23 10° N
CZ-4C R/B 4.2 19:56:57 10° W 20:01:39 26° NNW 20:06:52 10° NNE
NOSS 3-2 (A) 4.3 20:00:52 10° WSW 20:06:51 53° NW 20:13:28 10° NNE
Meteor 1-28 Rocket 3.4 20:03:28 10° N 20:07:12 74° WNW 20:10:53 10° SSW
CZ-2D R/B 4.1 20:06:27 20° ESE 20:08:18 31° ENE 20:11:45 10° N
Meteor 1-29 3.2 20:05:29 10° NNE 20:08:52 44° E 20:12:13 10° S
GPS 2-04 Rocket1 4.1 20:11:33 10° SW 20:14:09 20° S 20:15:05 18° SSE
ASTEX 1 3.6 20:12:18 10° NNE 20:17:03 47° E 20:21:45 10° SSE
H-2A R/B 3.2 20:17:06 26° ESE 20:18:40 39° ENE 20:22:17 10° N
Cosmos 839 Rocket 4.4 20:10:58 10° NNW 20:18:47 61° NE 20:23:23 20° SE
Cosmos 1943 Rocket 3.1 20:14:24 10° N 20:19:17 29° NE 20:21:11 24° E
Cosmos 1743 Rocket 3.5 20:15:29 10° N 20:19:57 87° WSW 20:24:20 10° S
Resurs 1-3 3.5 20:17:30 10° SSE 20:21:53 83° ENE 20:26:18 10° NNW
Cosmos 1805 4.2 20:19:01 10° SSW 20:22:51 51° WNW 20:26:42 10° N
ALOS 2.2 20:20:14 10° SSE 20:24:49 64° ENE 20:29:27 10° N
Cosmos 2369 Rocket 2.2 20:21:26 10° NNW 20:27:05 68° ENE 20:31:02 20° SE
Cosmos 2251 Rocket 4.2 20:22:41 10° SSE 20:27:11 30° E 20:31:44 10° NE
Helios 1B rocket 2.4 20:24:52 10° NNE 20:29:00 83° WNW 20:33:06 10° SSW
Cosmos 1943 3.2 20:24:19 10° S 20:29:48 57° ESE 20:35:18 10° NNE
Resurs 01 Rocket 2.1 20:25:38 10° S 20:30:02 63° WSW 20:34:28 10° NNW
SL-8 R/B 3.6 20:27:10 10° WSW 20:31:57 86° SSE 20:34:18 30° ENE
CENTAUR R/B 2.5 20:26:13 10° SSW 20:32:10 62° ESE 20:38:53 10° NE
Gbstr 26 Del rocket 3.3 20:29:43 10° SW 20:34:06 59° SE 20:36:27 31° ENE
Cosmos 1953 4.0 20:32:54 10° SW 20:36:33 35° WNW 20:40:14 10° N
Cosmos 1603 4.3 20:31:30 10° SW 20:37:09 59° WNW 20:42:52 10° NNE
ISS -3.4 20:34:05 10° WSW 20:37:21 82° NNW 20:37:47 63° NE
Cosmos 2263 4.2 20:33:08 10° NNW 20:38:53 62° ENE 20:41:31 32° SE
Cosmos 1331 Rocket 4.3 20:33:48 10° N 20:38:55 46° ENE 20:40:20 37° ESE
BREEZE-M DEB (TANK) 3.7 20:25:39 10° W 20:39:30 79° N 20:41:39 35° E
Cosmos 1733 3.0 20:37:16 10° S 20:41:08 82° E 20:45:00 10° N
ERBS 3.4 20:41:32 10° NW 20:44:31 34° NNE 20:44:31 34° NNE
Cosmos 1674 3.5 20:43:54 10° NNW 20:47:42 52° W 20:51:28 10° S
Cosmos 1470 3.0 20:44:28 10° SSW 20:48:18 66° W 20:52:11 10° N
Cosmos 2279 Rocket 4.2 20:48:02 32° SE 20:50:13 44° E 20:56:04 10° NNE
GP-B 2.9 20:47:10 10° N 20:51:37 71° E 20:52:56 44° SSE
Cosmos 2058 3.3 20:48:29 10° N 20:51:46 44° NE 20:51:46 44° NE
Abrixas 3.7 20:53:47 10° W 20:56:04 41° WNW 20:56:04 41° WNW
Cosmos 1092 Rocket 4.2 20:51:16 10° NNW 20:57:25 68° W 21:03:30 10° S
Cosmos 2151 2.9 20:56:39 10° N 21:00:53 84° W 21:01:37 61° S
H-2A R/B 4.3 21:03:10 15° NNE 21:03:10 15° NNE 21:04:21 10° NNE
Cosmos 1805 Rocket 4.2 20:57:52 10° N 21:01:08 41° NNE 21:01:08 41° NNE
ATLAS 5 CENTAUR R/B 3.9 20:59:28 10° W 21:03:37 26° NW 21:08:07 10° NNE
SL-24 R/B - RUBIN 2 4.4 20:57:42 10° NW 21:04:26 81° NE 21:06:20 48° SE
Envisat 3.6 21:05:37 40° NE 21:05:37 40° NE 21:09:41 10° N
Cosmos 2221 4.0 21:09:42 25° NNE 21:09:42 25° NNE 21:11:36 10° NNE
Cosmos 1655 Rocket 3.8 21:01:36 10° N 21:07:50 76° E 21:10:10 41° SSE
Cosmos 2026 Rocket 3.8 21:02:19 10° N 21:08:28 84° E 21:11:21 34° SSE
Meteor 2-1 Rocket 4.2 21:08:30 51° SSE 21:09:45 63° E 21:15:34 10° NNE
Cosmos 1428 Rocket 4.5 21:04:16 10° N 21:10:29 59° ENE 21:11:16 55° ESE
Cosmos 158 Rocket 4.2 21:06:31 10° SSW 21:11:21 64° WNW 21:16:14 10° NNE
Cosmos 1174 4.3 21:06:55 10° SW 21:11:25 58° NW 21:12:06 49° NNW
Meteor 1-16 Rocket 3.9 21:06:54 10° S 21:12:12 88° E 21:17:34 10° N
USA 215 3.2 21:09:20 21° NE 21:13:56 90° NW 21:20:29 10° SW
Cosmos 1634 Rocket 4.2 21:08:54 10° SSW 21:15:07 71° W 21:21:20 10° N
Cosmos 1656 Rocket 4.4 21:16:35 10° NNW 21:20:44 37° NNE 21:20:44 37° NNE
Meteor 1-11 4.4 21:17:38 10° NNW 21:23:25 75° W 21:25:15 45° S
Meteor 2-20 4.3 21:23:45 10° N 21:29:57 79° E 21:30:10 77° ESE
ERS-1 Rocket 3.3 21:35:50 60° NNW 21:35:50 60° NNW 21:39:57 10° NNW
Cosmos 1943 Rocket 3.0 21:57:52 10° NW 22:02:44 45° W 22:02:44 45° W
Cosmos 2369 Rocket 4.5 22:06:48 10° WNW 22:10:31 18° W 22:12:52 14° SW
CENTAUR R/B 4.0 22:17:36 10° W 22:23:18 34° NW 22:29:42 10° NNE
USA 215 4.3 22:56:44 38° NNW 22:56:44 38° NNW 23:02:27 10° W
